CW8504 Weather Reports


time (UTC)temp
C
wind
direction
speed
KPH
gust
KPH
rain 1hr
cm
rain 24hr
cm
rain mn
cm
humidity
%
barometer
mb
20260504190904 19 210 0.0 0.0 0.00 0.00 0.00 15 1010.6
20260504190404 18 248 0.0 0.0 0.00 0.00 0.00 15 1010.6
20260504185904 18 249 0.0 0.0 0.00 0.00 0.00 15 1010.7
20260504185404 18 249 0.0 0.0 0.00 0.00 0.00 14 1010.8
20260504184904 19 247 0.0 3.2 0.00 0.00 0.00 14 1010.9
20260504184404 19 226 0.0 3.2 0.00 0.00 0.00 13 1010.9
20260504183403 20 201 0.0 4.8 0.00 0.00 0.00 13 1011.0
20260504182904 20 214 8.0 16.1 0.00 0.00 0.00 12 1011.0
20260504181904 20 155 1.6 8.0 0.00 0.00 0.00 15 1011.0
20260504180904 18 105 0.0 0.0 0.00 0.00 0.00 19 1011.3
20260504180404 18 105 1.6 4.8 0.00 0.00 0.00 16 1011.4
20260504175404 18 312 0.0 0.0 0.00 0.00 0.00 17 1011.5
20260504174905 17 312 0.0 4.8 0.00 0.00 0.00 16 1011.6
20260504174404 17 258 0.0 3.2 0.00 0.00 0.00 19 1011.6
20260504173904 17 241 0.0 4.8 0.00 0.00 0.00 21 1011.7
20260504173404 17 252 0.0 4.8 0.00 0.00 0.00 20 1011.8
20260504172904 17 355 0.0 3.2 0.00 0.00 0.00 20 1011.8
20260504172405 16 355 0.0 4.8 0.00 0.00 0.00 21 1011.9
20260504171903 16 27 0.0 4.8 0.00 0.00 0.00 22 1012.0
20260504171403 16 31 0.0 0.0 0.00 0.00 0.00 21 1012.0
20260504170907 15 31 0.0 3.2 0.00 0.00 0.00 23 1012.1
20260504170404 15 31 0.0 1.6 0.00 0.00 0.00 22 1012.1
20260504160404 12 63 0.0 0.0 0.00 0.00 0.00 31 1012.5
20260504150904 6 63 0.0 0.0 0.00 0.00 0.00 44 1013.4
20260504140904 2 98 0.0 0.0 0.00 0.00 0.00 62 1014.0
20260504140404 1 98 1.6 3.2 0.00 0.00 0.00 63 1014.1
20260504130404 -1 190 0.0 0.0 0.00 0.00 0.00 69 1013.9
20260504110404 -1 190 0.0 0.0 0.00 0.00 0.00 66 1013.7
20260504100404 0 190 0.0 0.0 0.00 0.00 0.00 64 1013.7
20260504081904 1 190 0.0 0.0 0.00 0.00 0.00 57 1013.7
20260504081405 1 190 0.0 0.0 0.00 0.00 0.00 57 1013.7
20260504080904 1 190 0.0 0.0 0.00 0.00 0.00 56 1013.8
20260504080404 1 190 0.0 0.0 0.00 0.00 0.00 56 1013.7
20260504070406 2 190 0.0 0.0 0.00 0.00 0.00 53 1013.8
20260504050404 5 192 0.0 0.0 0.00 0.00 0.00 48 1014.1
20260504045904 5 192 0.0 0.0 0.00 0.00 0.00 47 1014.2
20260504044904 5 192 0.0 0.0 0.00 0.00 0.00 47 1014.1
20260504044404 5 192 0.0 0.0 0.00 0.00 0.00 47 1014.0
20260504043905 5 192 0.0 0.0 0.00 0.00 0.00 48 1014.1
20260504042904 6 193 0.0 0.0 0.00 0.00 0.00 44 1014.1
20260504042404 6 193 0.0 0.0 0.00 0.00 0.00 44 1014.0
20260504041904 7 193 0.0 0.0 0.00 0.00 0.00 43 1014.0
20260504041404 7 193 0.0 0.0 0.00 0.00 0.00 43 1014.0
20260504040904 7 193 0.0 0.0 0.00 0.00 0.00 40 1014.0
20260504040407 7 193 0.0 0.0 0.00 0.00 0.00 38 1013.9
20260504035904 8 193 0.0 0.0 0.00 0.00 0.00 39 1013.9
20260504035404 8 193 0.0 0.0 0.00 0.00 0.00 39 1013.9
20260504034905 8 193 0.0 0.0 0.00 0.00 0.00 37 1013.8
20260504033904 9 193 0.0 0.0 0.00 0.00 0.00 35 1013.7
20260504033404 10 193 0.0 0.0 0.00 0.00 0.00 37 1013.7
20260504032904 10 193 0.0 0.0 0.00 0.00 0.00 36 1013.6
20260504032404 10 193 0.0 0.0 0.00 0.00 0.00 33 1013.5
20260504031904 11 193 0.0 0.0 0.00 0.00 0.00 32 1013.5
20260504031405 11 193 0.0 0.0 0.00 0.00 0.00 29 1013.4
20260504030904 11 193 0.0 0.0 0.00 0.00 0.00 24 1013.3
20260504030404 11 193 0.0 0.0 0.00 0.00 0.00 21 1013.2
20260504025904 12 201 0.0 0.0 0.00 0.00 0.00 28 1013.2
20260504025404 12 201 0.0 0.0 0.00 0.00 0.00 26 1013.1
20260504024904 12 201 0.0 0.0 0.00 0.00 0.00 20 1013.1
20260504024404 13 202 0.0 0.0 0.00 0.00 0.00 18 1013.0
20260504023905 13 203 0.0 0.0 0.00 0.00 0.00 17 1013.1
20260504023404 14 236 0.0 0.0 0.00 0.00 0.00 18 1013.0
20260504022404 15 236 0.0 0.0 0.00 0.00 0.00 15 1012.9
20260504021904 16 236 0.0 0.0 0.00 0.00 0.00 14 1012.9
20260504021403 16 236 0.0 0.0 0.00 0.00 0.00 12 1012.8
20260504020904 16 236 0.0 0.0 0.00 0.00 0.00 12 1012.8
20260504020404 16 236 0.0 0.0 0.00 0.00 0.00 12 1012.8
20260504015904 17 236 0.0 0.0 0.00 0.00 0.00 10 1012.7
20260504014904 17 234 0.0 0.0 0.00 0.00 0.00 8 1012.8
20260504014404 18 229 0.0 0.0 0.00 0.00 0.00 6 1012.9
20260504013904 18 229 0.0 0.0 0.00 0.00 0.00 6 1012.8
20260504012904 19 237 0.0 3.2 0.00 0.00 0.00 6 1012.9
20260504012404 19 228 0.0 3.2 0.00 0.00 0.00 5 1012.8
20260504011404 20 232 3.2 16.1 0.00 0.00 0.00 4 1012.9
20260504010904 20 242 1.6 4.8 0.00 0.00 0.00 4 1013.0
20260504010404 20 223 1.6 4.8 0.00 0.00 0.00 5 1013.0
20260504005904 20 216 0.0 1.6 0.00 0.00 0.00 5 1013.0
20260504005405 20 217 0.0 4.8 0.00 0.00 0.00 4 1013.0
20260504004904 20 248 4.8 19.3 0.00 0.00 0.00 3 1013.0
20260504004404 20 215 0.0 9.7 0.00 0.00 0.00 4 1013.0
20260504003404 21 234 1.6 16.1 0.00 0.00 0.00 5 1013.0
20260504002904 21 249 1.6 4.8 0.00 0.00 0.00 4 1013.0
20260504002404 21 221 3.2 11.3 0.00 0.00 0.00 5 1013.0
20260504001904 21 209 3.2 12.9 0.00 0.00 0.00 7 1013.0
20260504000904 21 236 1.6 11.3 0.00 0.00 0.00 6 1013.1
20260504000404 21 244 3.2 11.3 0.00 0.00 0.00 6 1013.2
20260503235404 21 230 1.6 14.5 0.00 0.00 0.00 6 1013.2
20260503234904 21 229 9.7 19.3 0.00 0.00 0.00 6 1013.3
20260503233404 21 230 11.3 20.9 0.00 0.00 0.00 6 1013.2
20260503232404 21 257 1.6 19.3 0.00 0.00 0.00 7 1013.3
20260503231904 21 252 6.4 19.3 0.00 0.00 0.00 6 1013.3
20260503231404 21 231 3.2 22.5 0.00 0.00 0.00 6 1013.4
20260503230904 21 244 8.0 19.3 0.00 0.00 0.00 7 1013.5
20260503230404 21 236 8.0 19.3 0.00 0.00 0.00 7 1013.4
20260503225904 21 230 11.3 20.9 0.00 0.00 0.00 7 1013.5
20260503225404 21 248 1.6 16.1 0.00 0.00 0.00 6 1013.4
20260503224904 21 241 8.0 22.5 0.00 0.00 0.00 6 1013.3
20260503224404 21 229 8.0 20.9 0.00 0.00 0.00 6 1013.4
20260503223404 20 245 4.8 19.3 0.00 0.00 0.00 8 1013.5
20260503222904 20 224 3.2 19.3 0.00 0.00 0.00 9 1013.5
20260503222404 19 223 1.6 4.8 0.00 0.00 0.00 10 1013.7
20260503221904 18 218 8.0 14.5 0.00 0.00 0.00 9 1013.8
20260503221404 18 238 0.0 1.6 0.00 0.00 0.00 8 1013.8
20260503220404 19 129 0.0 1.6 0.00 0.00 0.00 8 1014.0
20260503215404 19 67 0.0 0.0 0.00 0.00 0.00 8 1014.1
20260503214904 18 67 0.0 0.0 0.00 0.00 0.00 7 1014.2
20260503214404 19 67 0.0 1.6 0.00 0.00 0.00 6 1014.2
20260503213904 19 69 0.0 3.2 0.00 0.00 0.00 7 1014.2
20260503212904 20 236 4.8 16.1 0.00 0.00 0.00 7 1014.3
20260503212404 20 254 0.0 12.9 0.00 0.00 0.00 6 1014.3
20260503211404 21 275 0.0 4.8 0.00 0.00 0.00 6 1014.4
20260503210905 21 141 0.0 3.2 0.00 0.00 0.00 4 1014.4
20260503210405 21 231 0.0 1.6 0.00 0.00 0.00 4 1014.4
20260503205904 21 235 8.0 19.3 0.00 0.00 0.00 6 1014.7
20260503205404 22 205 3.2 14.5 0.00 0.00 0.00 5 1014.5
20260503204904 21 217 3.2 9.7 0.00 0.00 0.00 6 1014.6
20260503203904 21 218 4.8 9.7 0.00 0.00 0.00 4 1014.8
20260503202904 21 224 1.6 19.3 0.00 0.00 0.00 4 1014.8
20260503202404 21 231 8.0 20.9 0.00 0.00 0.00 4 1015.0
20260503201904 21 224 6.4 19.3 0.00 0.00 0.00 6 1015.0
20260503201403 21 216 1.6 16.1 0.00 0.00 0.00 5 1015.0
20260503200907 20 200 8.0 19.3 0.00 0.00 0.00 6 1015.1
20260503200404 20 218 11.3 19.3 0.00 0.00 0.00 4 1015.1
20260503195904 20 199 12.9 25.7 0.00 0.00 0.00 6 1015.1
20260503195404 20 217 11.3 20.9 0.00 0.00 0.00 6 1015.2
20260503194904 20 221 9.7 22.5 0.00 0.00 0.00 6 1015.2
20260503193404 20 204 4.8 19.3 0.00 0.00 0.00 8 1015.3
20260503192904 19 255 3.2 9.7 0.00 0.00 0.00 11 1015.3
20260503192404 19 33 3.2 9.7 0.00 0.00 0.00 8 1015.4
20260503191904 20 254 8.0 22.5 0.00 0.00 0.00 8 1015.5
20260503191404 20 253 4.8 11.3 0.00 0.00 0.00 8 1015.5